DEINS -EDDF

Flight info

Callsign DEINS
Flight time N/A
Altitude
Route
Aircraft DA40

Departure

Time N/A
Airport -

Arrival

Time 2026-04-15 13:09
Airport Frankfurt Main Airport (EDDF)
Time Latitude Longitude Altitude Speed Heading
2026-04-15 13:00 50.03044 8.54606 342 ft 68 kts 71°
2026-04-15 13:00 50.03233 8.55422 353 ft 99 kts 66°
2026-04-15 13:00 50.03480 8.56462 451 ft 104 kts 69°
2026-04-15 13:00 50.03735 8.57514 563 ft 104 kts 67°
2026-04-15 13:01 50.04009 8.58592 591 ft 111 kts 68°
2026-04-15 13:01 50.04280 8.59738 636 ft 115 kts 69°
2026-04-15 13:01 50.04247 8.60920 834 ft 115 kts 122°
2026-04-15 13:01 50.03552 8.61314 1090 ft 112 kts 195°
2026-04-15 13:02 50.02928 8.60529 1118 ft 127 kts 237°
2026-04-15 13:02 50.02502 8.59214 949 ft 143 kts 246°
2026-04-15 13:02 50.02215 8.57779 994 ft 125 kts 259°
2026-04-15 13:02 50.02178 8.56566 972 ft 116 kts 269°
2026-04-15 13:03 50.01997 8.55327 1068 ft 117 kts 255°
2026-04-15 13:03 50.01769 8.54064 1018 ft 128 kts 255°
2026-04-15 13:03 50.01581 8.52692 1020 ft 125 kts 269°
2026-04-15 13:03 50.02046 8.52096 1033 ft 91 kts
2026-04-15 13:04 50.02543 8.52678 592 ft 94 kts 51°
2026-04-15 13:04 50.02787 8.53566 366 ft 83 kts 68°
2026-04-15 13:04 50.02967 8.54319 344 ft 67 kts 61°
2026-04-15 13:04 50.03133 8.55000 349 ft 83 kts 69°
2026-04-15 13:05 50.03376 8.56010 350 ft 110 kts 66°
2026-04-15 13:05 50.03635 8.57129 449 ft 109 kts 69°
2026-04-15 13:05 50.03852 8.58221 604 ft 103 kts 71°
2026-04-15 13:05 50.04070 8.59277 752 ft 105 kts 69°
2026-04-15 13:06 50.04478 8.60125 851 ft 105 kts 17°
2026-04-15 13:06 50.05082 8.59815 783 ft 89 kts 309°
2026-04-15 13:06 50.05097 8.58752 724 ft 115 kts 250°
2026-04-15 13:06 50.04808 8.57756 699 ft 93 kts 247°
2026-04-15 13:07 50.04572 8.56815 637 ft 88 kts 251°
2026-04-15 13:07 50.04352 8.55914 851 ft 97 kts 248°
2026-04-15 13:07 50.04082 8.54874 944 ft 107 kts 249°
2026-04-15 13:07 50.03822 8.53690 899 ft 120 kts 251°
2026-04-15 13:08 50.03552 8.52448 899 ft 121 kts 257°
2026-04-15 13:08 50.03128 8.51488 1120 ft 109 kts 199°
2026-04-15 13:08 50.02536 8.52047 962 ft 121 kts 104°
2026-04-15 13:08 50.02701 8.53260 407 ft 106 kts 63°
2026-04-15 13:09 50.02937 8.54183 348 ft 82 kts 67°
2026-04-15 13:09 50.03118 8.54935 354 ft 65 kts 67°
2026-04-15 13:09 50.03243 8.55521 347 ft 51 kts 84°
2026-04-15 13:09 50.03216 8.55991 353 ft 37 kts 94°
2026-04-15 13:10 50.03123 8.56160 355 ft 15 kts 199°
2026-04-15 13:10 50.03107 8.56043 354 ft 14 kts 254°
2026-04-15 13:10 50.03059 8.55858 358 ft 24 kts 250°
2026-04-15 13:10 50.02994 8.55594 356 ft 26 kts 246°
2026-04-15 13:11 50.02921 8.55295 357 ft 34 kts 251°
2026-04-15 13:11 50.02845 8.54980 355 ft 30 kts 249°
2026-04-15 13:11 50.02779 8.54720 358 ft 29 kts 248°
2026-04-15 13:11 50.02701 8.54394 355 ft 32 kts 252°
2026-04-15 13:12 50.02637 8.54072 357 ft 32 kts 250°
2026-04-15 13:12 50.02571 8.53773 355 ft 25 kts 247°
2026-04-15 13:12 50.02503 8.53516 356 ft 22 kts 246°
2026-04-15 13:12 50.02445 8.53268 355 ft 26 kts 250°
2026-04-15 13:13 50.02379 8.52993 360 ft 25 kts 248°
2026-04-15 13:13 50.02316 8.52836 358 ft 15 kts 193°
2026-04-15 13:13 50.02193 8.52833 356 ft 17 kts 180°
2026-04-15 13:13 50.02149 8.52896 356 ft 10 kts 83°
2026-04-15 13:14 50.02151 8.53033 356 ft 14 kts 83°
2026-04-15 13:14 50.02208 8.53124 360 ft 14 kts 67°
2026-04-15 13:14 50.02243 8.53254 359 ft 9 kts 29°
2026-04-15 13:14 50.02291 8.53235 358 ft 0 kts 343°